Back to catalog

SCOUT X-4 R/B

AliveLEO
NORAD 1358·ROCKET BODY·🇺🇸 United States

Launched Apr 29, 1965 from Wallops Flight Facility

Loading…

Next Passes (next 24 hours)

TLE

FreshSource: Space-Track

Epoch: Sep 14, 2026, 09:47 UTC

1 01358U 65032B   26257.40769255 -.00000065  00000-0  26184-4 0  9990
2 01358  41.1915  46.6592 0243975 326.5603  31.9951 13.38253040999629

Track SCOUT X-4 R/B in real time with AllMySat

Download on the App Store